TimeCST,TemperatureF,Dew PointF,Humidity,Sea Level PressureIn,VisibilityMPH,Wind Direction,Wind SpeedMPH,Gust SpeedMPH,PrecipitationIn,Events,Conditions,WindDirDegrees,DateUTC
12:54 AM,32.0,24.1,73,30.14,10.0,SSE,6.9,-,N/A,,Overcast,160,2012-12-06 06:54:00
1:54 AM,33.1,24.1,70,30.09,10.0,SSE,10.4,20.7,N/A,,Overcast,150,2012-12-06 07:54:00
2:54 AM,34.0,25.0,70,30.06,10.0,SSE,9.2,17.3,N/A,,Overcast,150,2012-12-06 08:54:00
3:54 AM,35.1,25.0,67,30.01,10.0,SSE,15.0,23.0,N/A,,Overcast,160,2012-12-06 09:54:00
4:54 AM,36.0,26.1,67,30.02,10.0,South,8.1,-,N/A,,Overcast,170,2012-12-06 10:54:00
5:54 AM,35.1,27.0,72,29.99,10.0,South,9.2,19.6,N/A,,Overcast,170,2012-12-06 11:54:00
6:54 AM,35.1,27.0,72,29.99,10.0,South,8.1,-,N/A,,Overcast,170,2012-12-06 12:54:00
7:54 AM,36.0,28.0,73,29.96,10.0,South,8.1,-,N/A,,Overcast,180,2012-12-06 13:54:00
9:54 AM,37.9,28.9,70,29.95,10.0,South,9.2,-,N/A,,Overcast,180,2012-12-06 15:54:00
10:54 AM,39.9,30.0,68,29.91,10.0,South,10.4,17.3,N/A,,Overcast,190,2012-12-06 16:54:00
11:54 AM,42.1,30.9,65,29.89,10.0,SW,12.7,19.6,0.00,,Overcast,230,2012-12-06 17:54:00
12:54 PM,43.0,32.0,65,29.86,10.0,SSW,9.2,-,N/A,,Overcast,210,2012-12-06 18:54:00
1:09 PM,44.6,32.0,61,29.83,10.0,SSW,10.4,-,N/A,,Overcast,210,2012-12-06 19:09:00
1:27 PM,44.6,32.0,61,29.82,10.0,SSW,11.5,17.3,N/A,,Overcast,210,2012-12-06 19:27:00
1:46 PM,44.6,32.0,61,29.81,10.0,SSW,10.4,-,N/A,,Overcast,210,2012-12-06 19:46:00
1:54 PM,44.1,32.0,63,29.84,10.0,SW,10.4,-,N/A,,Overcast,220,2012-12-06 19:54:00
2:39 PM,44.6,33.8,66,29.80,10.0,SW,9.2,-,N/A,,Overcast,220,2012-12-06 20:39:00
2:54 PM,45.0,33.1,63,29.83,10.0,SW,8.1,-,N/A,,Scattered Clouds,220,2012-12-06 20:54:00
3:54 PM,44.1,33.1,65,29.84,10.0,SW,8.1,-,N/A,,Clear,230,2012-12-06 21:54:00
4:54 PM,43.0,34.0,71,29.85,10.0,West,5.8,-,N/A,,Mostly Cloudy,260,2012-12-06 22:54:00
5:54 PM,43.0,34.0,71,29.88,10.0,WSW,4.6,-,N/A,,Overcast,250,2012-12-06 23:54:00
6:21 PM,42.8,35.6,76,29.85,10.0,West,6.9,-,N/A,,Overcast,270,2012-12-07 00:21:00
6:54 PM,42.1,35.1,76,29.89,10.0,West,8.1,-,N/A,,Mostly Cloudy,270,2012-12-07 00:54:00
7:43 PM,39.2,30.2,70,29.88,10.0,NW,12.7,-,N/A,,Scattered Clouds,310,2012-12-07 01:43:00
7:54 PM,37.9,28.9,70,29.92,10.0,NW,15.0,-,N/A,,Clear,310,2012-12-07 01:54:00
8:54 PM,35.1,27.0,72,29.93,10.0,NW,6.9,-,N/A,,Clear,320,2012-12-07 02:54:00
9:54 PM,35.1,28.0,76,29.94,10.0,WNW,5.8,-,N/A,,Mostly Cloudy,290,2012-12-07 03:54:00
10:54 PM,35.1,27.0,72,29.94,10.0,WNW,6.9,-,N/A,,Mostly Cloudy,300,2012-12-07 04:54:00
11:54 PM,33.1,27.0,78,29.94,10.0,NW,5.8,-,N/A,,Overcast,310,2012-12-07 05:54:00